QPF
0.02 0.03 0.02 0.00 0.00 0.00 0.00 0.00 0.00 0.00 0.00 0.00 0.00 0.00 0.00 0.00 0.00 0.00 0.00 0.00 0.00 0.00 0.00 0.00 0.00 0.00 0.00 0.00 0.00 0.00 0.00 0.00 0.00 0.00 0.00 0.00 0.00 0.00 0.00 0.00 0.00 0.00 0.00 0.00 0.00 0.00 0.00 0.00 0.00 0.00 0.00 0.00 0.01 0.01 0.06 0.04 0.01 0.00 0.00 0.00 0.00 0.00 0.00 0.00 0.00 0.00 0.00 0.00 0.00 0.00 0.00 0.00 0.00 0.00
0.01 0.08 0.07 0.08 0.01 0.00 0.00 0.00 0.00 0.00 0.00 0.00 0.00 0.00 0.00 0.00 0.00 0.00 0.00 0.00 0.00 0.00 0.00 0.00 0.00 0.00 0.00 0.00 0.00 0.00 0.00 0.00 0.00 0.00 0.00 0.00 0.00 0.00 0.00 0.00 0.00 0.00 0.00 0.00 0.00 0.00 0.00 0.00 0.00 0.00 0.00 0.02 0.01 0.01 0.02 0.03 0.02 0.01 0.00 0.00 0.00 0.00 0.00 0.00 0.00 0.00 0.00 0.00 0.00 0.00 0.00 0.00 0.00 0.00
0.01 0.04 0.05 0.01 0.01 0.01 0.00 0.00 0.00 0.00 0.00 0.00 0.00 0.00 0.00 0.00 0.00 0.00 0.00 0.00 0.00 0.00 0.00 0.00 0.00 0.00 0.00 0.00 0.00 0.00 0.00 0.00 0.00 0.00 0.00 0.00 0.00 0.00 0.00 0.00 0.00 0.00 0.00 0.00 0.00 0.00 0.00 0.00 0.00 0.00 0.00 0.00 0.00 0.03 0.00 0.01 0.02 0.01 0.01 0.01 0.00 0.00 0.00 0.00 0.00 0.00 0.00 0.00 0.00 0.00 0.00 0.00 0.00 0.00
0.00 0.00 0.00 0.00 0.00 0.01 0.01 0.00 0.00 0.00 0.00 0.00 0.01 0.00 0.00 0.00 0.00 0.00 0.00 0.00 0.00 0.00 0.00 0.00 0.00 0.00 0.00 0.00 0.00 0.00 0.00 0.00 0.00 0.00 0.00 0.00 0.00 0.00 0.00 0.00 0.00 0.00 0.00 0.00 0.00 0.00 0.00 0.00 0.00 0.00 0.00 0.00 0.00 0.00 0.00 0.00 0.00 0.00 0.00 0.00 0.00 0.00 0.00 0.00 0.00 0.00 0.00 0.00 0.00 0.00 0.00 0.00 0.00 0.00
0.00 0.00 0.00 0.00 0.00 0.00 0.00 0.01 0.00 0.00 0.00 0.01 0.01 0.00 0.00 0.00 0.00 0.00 0.00 0.00 0.00 0.00 0.00 0.00 0.00 0.00 0.00 0.00 0.00 0.00 0.00 0.00 0.00 0.00 0.00 0.00 0.00 0.00 0.00 0.00 0.00 0.00 0.00 0.00 0.00 0.00 0.00 0.00 0.00 0.00 0.00 0.00 0.00 0.00 0.00 0.00 0.00 0.00 0.00 0.00 0.00 0.00 0.00 0.00 0.00 0.00 0.00 0.00 0.00 0.00 0.00 0.00 0.00 0.00
0.00 0.00 0.00 0.00 0.00 0.00 0.00 0.00 0.00 0.00 0.00 0.01 0.01 0.01 0.00 0.00 0.00 0.00 0.00 0.00 0.00 0.00 0.00 0.00 0.00 0.00 0.00 0.00 0.00 0.00 0.00 0.00 0.00 0.00 0.00 0.00 0.00 0.00 0.00 0.00 0.00 0.00 0.00 0.00 0.00 0.00 0.00 0.00 0.00 0.00 0.00 0.00 0.00 0.00 0.00 0.00 0.00 0.00 0.00 0.00 0.00 0.00 0.00 0.00 0.00 0.00 0.00 0.00 0.00 0.00 0.00 0.00 0.00 0.00
0.00 0.00 0.00 0.00 0.00 0.01 0.01 0.01 0.00 0.00 0.00 0.00 0.00 0.00 0.00 0.00 0.00 0.00 0.00 0.00 0.00 0.00 0.00 0.00 0.00 0.00 0.00 0.00 0.00 0.00 0.00 0.00 0.00 0.00 0.00 0.00 0.00 0.00 0.00 0.00 0.00 0.00 0.00 0.00 0.00 0.00 0.00 0.00 0.00 0.00 0.00 0.00 0.00 0.00 0.00 0.00 0.00 0.00 0.00 0.00 0.00 0.00 0.00 0.00 0.00 0.00 0.00 0.00 0.00 0.00 0.00 0.00 0.00 0.00
0.00 0.00 0.00 0.00 0.00 0.01 0.01 0.01 0.01 0.00 0.00 0.00 0.00 0.00 0.00 0.00 0.00 0.00 0.00 0.00 0.00 0.00 0.00 0.00 0.00 0.00 0.00 0.00 0.00 0.00 0.00 0.00 0.01 0.00 0.00 0.00 0.00 0.00 0.00 0.00 0.00 0.00 0.00 0.00 0.00 0.00 0.00 0.00 0.00 0.00 0.00 0.00 0.00 0.00 0.00 0.00 0.00 0.00 0.00 0.00 0.00 0.00 0.00 0.00 0.00 0.00 0.00 0.00 0.00 0.00 0.00 0.00 0.00 0.00
0.01 0.01 0.00 0.00 0.02 0.01 0.01 0.00 0.00 0.00 0.01 0.00 0.00 0.00 0.00 0.00 0.00 0.00 0.00 0.00 0.00 0.00 0.00 0.00 0.00 0.00 0.00 0.00 0.00 0.00 0.00 0.00 0.01 0.01 0.00 0.00 0.00 0.00 0.00 0.00 0.00 0.00 0.00 0.00 0.00 0.00 0.00 0.00 0.00 0.00 0.00 0.00 0.00 0.00 0.00 0.00 0.00 0.00 0.00 0.00 0.00 0.00 0.00 0.00 0.00 0.00 0.00 0.00 0.00 0.00 0.00 0.00 0.00 0.00
0.00 0.01 0.00 0.01 0.01 0.01 0.02 0.03 0.01 0.01 0.01 0.00 0.00 0.00 0.00 0.00 0.00 0.00 0.00 0.00 0.00 0.01 0.00 0.00 0.00 0.00 0.00 0.01 0.00 0.00 0.00 0.00 0.00 0.01 0.01 0.01 0.01 0.01 0.01 0.00 0.00 0.00 0.00 0.00 0.00 0.00 0.00 0.00 0.00 0.00 0.00 0.00 0.00 0.00 0.00 0.00 0.00 0.00 0.00 0.00 0.00 0.00 0.00 0.00 0.00 0.00 0.00 0.00 0.00 0.00 0.00 0.00 0.00 0.00
0.00 0.03 0.01 0.01 0.01 0.01 0.02 0.02 0.03 0.06 0.01 0.01 0.01 0.00 0.00 0.00 0.01 0.00 0.00 0.01 0.02 0.01 0.01 0.02 0.04 0.01 0.00 0.00 0.00 0.00 0.00 0.00 0.00 0.00 0.01 0.02 0.02 0.02 0.01 0.00 0.00 0.00 0.00 0.00 0.00 0.00 0.00 0.00 0.00 0.00 0.00 0.00 0.00 0.00 0.00 0.00 0.00 0.00 0.00 0.00 0.00 0.00 0.00 0.00 0.00 0.00 0.00 0.00 0.00 0.00 0.00 0.00 0.00 0.00
0.00 0.00 0.01 0.02 0.01 0.02 0.02 0.04 0.08 0.05 0.01 0.01 0.01 0.02 0.03 0.01 0.01 0.01 0.00 0.01 0.01 0.01 0.01 0.01 0.01 0.01 0.01 0.01 0.01 0.02 0.01 0.01 0.00 0.00 0.01 0.01 0.01 0.00 0.00 0.00 0.00 0.00 0.00 0.00 0.00 0.00 0.00 0.00 0.00 0.00 0.00 0.00 0.00 0.00 0.00 0.00 0.00 0.00 0.00 0.00 0.00 0.00 0.00 0.00 0.00 0.00 0.00 0.00 0.00 0.00 0.00 0.00 0.00 0.00
0.00 0.00 0.00 0.00 0.00 0.01 0.01 0.00 0.01 0.01 0.01 0.03 0.02 0.03 0.08 0.04 0.02 0.03 0.01 0.01 0.01 0.00 0.01 0.01 0.01 0.01 0.01 0.01 0.01 0.01 0.01 0.00 0.00 0.00 0.00 0.00 0.00 0.00 0.01 0.00 0.00 0.00 0.00 0.00 0.00 0.00 0.00 0.00 0.00 0.00 0.00 0.00 0.00 0.00 0.00 0.00 0.00 0.00 0.00 0.00 0.00 0.00 0.00 0.00 0.00 0.00 0.00 0.00 0.00 0.00 0.00 0.00 0.00 0.00
0.00 0.00 0.00 0.00 0.00 0.00 0.00 0.00 0.00 0.00 0.00 0.00 0.01 0.03 0.17 0.03 0.02 0.02 0.02 0.01 0.01 0.01 0.00 0.00 0.00 0.00 0.00 0.01 0.00 0.00 0.00 0.00 0.00 0.01 0.01 0.01 0.00 0.00 0.01 0.01 0.00 0.00 0.00 0.00 0.00 0.00 0.00 0.00 0.00 0.00 0.00 0.00 0.00 0.00 0.00 0.00 0.00 0.00 0.00 0.00 0.00 0.00 0.00 0.00 0.00 0.00 0.00 0.00 0.00 0.00 0.00 0.00 0.00 0.00
0.00 0.00 0.00 0.00 0.00 0.00 0.00 0.00 0.00 0.00 0.00 0.00 0.00 0.00 0.00 0.00 0.02 0.07 0.13 0.01 0.01 0.01 0.00 0.00 0.01 0.00 0.00 0.00 0.01 0.04 0.03 0.01 0.01 0.01 0.01 0.01 0.01 0.02 0.02 0.02 0.00 0.00 0.00 0.00 0.00 0.00 0.00 0.00 0.00 0.00 0.00 0.00 0.00 0.00 0.00 0.00 0.00 0.00 0.00 0.00 0.00 0.00 0.00 0.00 0.00 0.00 0.00 0.00 0.00 0.00 0.00 0.00 0.00 0.00
0.00 0.00 0.00 0.00 0.00 0.00 0.00 0.00 0.00 0.00 0.00 0.00 0.00 0.00 0.00 0.00 0.00 0.00 0.00 0.01 0.04 0.02 0.01 0.00 0.00 0.02 0.01 0.00 0.02 0.03 0.04 0.03 0.01 0.01 0.01 0.01 0.01 0.01 0.03 0.02 0.02 0.01 0.00 0.00 0.00 0.00 0.00 0.00 0.00 0.00 0.00 0.00 0.00 0.00 0.00 0.00 0.00 0.00 0.00 0.00 0.00 0.00 0.00 0.00 0.00 0.00 0.00 0.00 0.00 0.00 0.00 0.00 0.00 0.00
0.00 0.00 0.00 0.00 0.00 0.00 0.00 0.00 0.00 0.00 0.00 0.00 0.00 0.00 0.00 0.00 0.00 0.00 0.00 0.00 0.00 0.01 0.06 0.01 0.00 0.00 0.00 0.01 0.01 0.01 0.03 0.00 0.01 0.01 0.01 0.01 0.02 0.01 0.01 0.01 0.01 0.00 0.00 0.00 0.00 0.00 0.00 0.00 0.00 0.00 0.00 0.00 0.00 0.00 0.00 0.00 0.00 0.00 0.00 0.00 0.00 0.00 0.00 0.00 0.00 0.00 0.00 0.00 0.00 0.00 0.00 0.00 0.00 0.00
0.00 0.00 0.00 0.00 0.00 0.00 0.00 0.00 0.00 0.00 0.00 0.00 0.00 0.00 0.00 0.00 0.00 0.00 0.00 0.00 0.00 0.00 0.00 0.01 0.02 0.00 0.00 0.00 0.00 0.01 0.00 0.01 0.00 0.01 0.01 0.01 0.01 0.01 0.00 0.00 0.01 0.04 0.01 0.01 0.01 0.03 0.00 0.00 0.00 0.00 0.00 0.00 0.00 0.00 0.00 0.00 0.00 0.00 0.00 0.00 0.00 0.00 0.00 0.00 0.00 0.00 0.00 0.00 0.00 0.00 0.00 0.00 0.00 0.00
0.00 0.00 0.00 0.00 0.00 0.00 0.00 0.00 0.00 0.00 0.00 0.00 0.00 0.00 0.00 0.00 0.00 0.00 0.00 0.00 0.00 0.00 0.00 0.00 0.00 0.00 0.00 0.00 0.01 0.01 0.01 0.01 0.01 0.01 0.02 0.03 0.02 0.02 0.02 0.02 0.02 0.04 0.03 0.03 0.03 0.03 0.00 0.00 0.02 0.00 0.00 0.00 0.00 0.00 0.00 0.00 0.00 0.00 0.00 0.00 0.00 0.00 0.00 0.00 0.00 0.00 0.00 0.00 0.00 0.00 0.00 0.00 0.00 0.00
0.00 0.00 0.00 0.00 0.00 0.00 0.00 0.00 0.00 0.00 0.00 0.00 0.00 0.00 0.00 0.00 0.00 0.00 0.00 0.00 0.00 0.00 0.00 0.00 0.00 0.00 0.00 0.00 0.00 0.02 0.04 0.01 0.02 0.03 0.03 0.04 0.03 0.04 0.05 0.06 0.04 0.01 0.01 0.01 0.04 0.01 0.00 0.00 0.00 0.01 0.00 0.00 0.00 0.00 0.00 0.00 0.00 0.00 0.00 0.00 0.00 0.00 0.00 0.00 0.00 0.00 0.00 0.00 0.00 0.00 0.00 0.00 0.00 0.00
0.00 0.00 0.00 0.00 0.00 0.00 0.00 0.00 0.00 0.00 0.00 0.00 0.00 0.00 0.00 0.00 0.00 0.00 0.00 0.00 0.00 0.00 0.00 0.00 0.00 0.00 0.00 0.00 0.00 0.00 0.00 0.01 0.02 0.15 0.19 0.08 0.03 0.07 0.05 0.03 0.01 0.02 0.01 0.01 0.01 0.01 0.00 0.00 0.00 0.01 0.00 0.00 0.00 0.00 0.00 0.00 0.00 0.00 0.00 0.00 0.00 0.00 0.00 0.00 0.00 0.00 0.00 0.00 0.00 0.00 0.00 0.00 0.00 0.00
0.00 0.00 0.00 0.00 0.00 0.00 0.00 0.00 0.00 0.00 0.00 0.00 0.00 0.00 0.00 0.00 0.00 0.00 0.00 0.00 0.00 0.00 0.00 0.00 0.00 0.00 0.00 0.00 0.00 0.00 0.00 0.00 0.01 0.03 0.06 0.04 0.04 0.05 0.05 0.02 0.01 0.03 0.01 0.03 0.01 0.02 0.00 0.00 0.00 0.01 0.00 0.00 0.00 0.00 0.00 0.00 0.00 0.00 0.00 0.00 0.00 0.00 0.00 0.00 0.00 0.00 0.00 0.00 0.00 0.00 0.00 0.00 0.00 0.00
0.00 0.00 0.00 0.00 0.00 0.00 0.00 0.00 0.00 0.00 0.00 0.00 0.00 0.00 0.00 0.01 0.00 0.00 0.00 0.00 0.00 0.00 0.00 0.00 0.00 0.00 0.00 0.00 0.00 0.00 0.00 0.00 0.00 0.04 0.01 0.03 0.04 0.04 0.03 0.03 0.03 0.05 0.02 0.00 0.00 0.02 0.01 0.00 0.00 0.00 0.02 0.02 0.00 0.00 0.00 0.00 0.00 0.00 0.00 0.00 0.00 0.00 0.00 0.00 0.00 0.00 0.00 0.00 0.00 0.00 0.00 0.00 0.00 0.00
0.00 0.00 0.00 0.00 0.00 0.00 0.00 0.00 0.00 0.00 0.00 0.00 0.00 0.01 0.02 0.01 0.01 0.01 0.01 0.00 0.00 0.00 0.01 0.01 0.02 0.02 0.05 0.00 0.00 0.00 0.00 0.00 0.01 0.02 0.01 0.01 0.03 0.06 0.06 0.04 0.04 0.03 0.01 0.02 0.00 0.01 0.01 0.01 0.03 0.01 0.02 0.02 0.01 0.00 0.00 0.00 0.00 0.00 0.00 0.00 0.00 0.00 0.00 0.00 0.00 0.00 0.00 0.00 0.00 0.00 0.00 0.00 0.00 0.00
0.00 0.00 0.00 0.00 0.00 0.00 0.00 0.00 0.00 0.00 0.00 0.00 0.01 0.01 0.02 0.01 0.01 0.01 0.01 0.01 0.00 0.02 0.01 0.01 0.02 0.02 0.02 0.02 0.02 0.02 0.01 0.01 0.00 0.00 0.00 0.00 0.01 0.04 0.06 0.04 0.03 0.04 0.01 0.02 0.00 0.01 0.04 0.02 0.02 0.02 0.02 0.03 0.01 0.00 0.00 0.00 0.00 0.01 0.00 0.00 0.00 0.00 0.00 0.00 0.00 0.00 0.00 0.00 0.00 0.00 0.00 0.00 0.00 0.00
0.00 0.00 0.00 0.00 0.00 0.00 0.00 0.00 0.00 0.00 0.00 0.00 0.00 0.00 0.00 0.00 0.00 0.00 0.01 0.01 0.02 0.02 0.02 0.03 0.02 0.03 0.03 0.03 0.02 0.02 0.02 0.03 0.02 0.02 0.00 0.00 0.00 0.01 0.02 0.03 0.04 0.03 0.02 0.01 0.00 0.01 0.05 0.04 0.01 0.02 0.01 0.02 0.01 0.01 0.00 0.00 0.00 0.00 0.00 0.00 0.00 0.00 0.00 0.00 0.00 0.00 0.00 0.00 0.00 0.00 0.00 0.00 0.00 0.00
0.00 0.00 0.00 0.00 0.00 0.00 0.00 0.00 0.00 0.00 0.00 0.01 0.01 0.00 0.00 0.00 0.00 0.00 0.00 0.01 0.03 0.03 0.04 0.03 0.05 0.05 0.06 0.03 0.03 0.03 0.02 0.03 0.02 0.01 0.01 0.01 0.00 0.01 0.00 0.07 0.08 0.12 0.02 0.14 0.35 0.12 0.08 0.04 0.00 0.02 0.02 0.01 0.02 0.01 0.01 0.01 0.00 0.00 0.00 0.00 0.00 0.00 0.00 0.00 0.00 0.00 0.00 0.00 0.00 0.00 0.00 0.00 0.00 0.00
0.00 0.00 0.00 0.00 0.00 0.00 0.00 0.00 0.01 0.01 0.01 0.01 0.01 0.01 0.01 0.01 0.01 0.00 0.00 0.00 0.00 0.01 0.03 0.06 0.06 0.07 0.04 0.05 0.05 0.03 0.03 0.03 0.02 0.10 0.14 0.27 0.12 0.03 0.01 0.01 0.01 0.01 0.06 0.13 0.08 0.15 0.14 0.15 0.03 0.02 0.01 0.02 0.03 0.03 0.01 0.00 0.00 0.00 0.00 0.00 0.00 0.00 0.00 0.00 0.00 0.00 0.00 0.00 0.00 0.00 0.00 0.00 0.00 0.00
0.00 0.00 0.00 0.00 0.00 0.00 0.00 0.00 0.00 0.01 0.01 0.01 0.01 0.01 0.02 0.02 0.02 0.01 0.01 0.01 0.01 0.04 0.04 0.02 0.03 0.05 0.02 0.03 0.02 0.02 0.02 0.02 0.03 0.02 0.02 0.09 0.20 0.08 0.05 0.02 0.07 0.08 0.04 0.04 0.10 0.08 0.12 0.06 0.05 0.02 0.03 0.03 0.04 0.02 0.02 0.01 0.00 0.01 0.01 0.02 0.01 0.00 0.00 0.00 0.00 0.00 0.00 0.00 0.00 0.00 0.00 0.00 0.00 0.00
0.00 0.00 0.00 0.00 0.00 0.00 0.00 0.00 0.00 0.00 0.00 0.01 0.02 0.02 0.02 0.02 0.02 0.02 0.02 0.02 0.03 0.03 0.03 0.03 0.03 0.02 0.03 0.04 0.02 0.01 0.03 0.02 0.04 0.03 0.07 0.18 0.15 0.21 0.13 0.12 0.04 0.10 0.05 0.05 0.02 0.10 0.22 0.38 0.14 0.19 0.23 0.24 0.04 0.10 0.09 0.09 0.02 0.00 0.00 0.01 0.00 0.00 0.00 0.00 0.01 0.00 0.00 0.00 0.00 0.00 0.00 0.00 0.01 0.01
0.00 0.00 0.00 0.00 0.01 0.00 0.01 0.02 0.03 0.03 0.02 0.01 0.00 0.01 0.01 0.01 0.02 0.02 0.03 0.04 0.04 0.02 0.02 0.02 0.03 0.03 0.05 0.04 0.06 0.04 0.03 0.06 0.13 0.13 0.24 0.32 0.09 0.07 0.08 0.35 0.20 0.03 0.03 0.06 0.05 0.01 0.03 0.05 0.07 0.18 0.14 0.05 0.04 0.02 0.02 0.10 0.07 0.01 0.03 0.01 0.01 0.06 0.01 0.02 0.02 0.01 0.01 0.00 0.00 0.00 0.00 0.01 0.01 0.00
0.00 0.00 0.01 0.01 0.01 0.00 0.00 0.00 0.00 0.01 0.01 0.01 0.01 0.01 0.02 0.03 0.04 0.04 0.03 0.02 0.03 0.04 0.05 0.05 0.04 0.04 0.05 0.06 0.03 0.02 0.02 0.02 0.04 0.05 0.04 0.02 0.12 0.06 0.03 0.02 0.02 0.01 0.02 0.08 0.11 0.07 0.02 0.04 0.07 0.09 0.13 0.23 0.05 0.02 0.04 0.04 0.07 0.06 0.04 0.02 0.01 0.00 0.00 0.02 0.01 0.01 0.00 0.01 0.02 0.02 0.01 0.01 0.01 0.01
0.00 0.00 0.00 0.00 0.00 0.00 0.00 0.01 0.01 0.01 0.01 0.01 0.01 0.01 0.01 0.02 0.02 0.03 0.03 0.03 0.04 0.04 0.03 0.04 0.04 0.04 0.06 0.07 0.04 0.04 0.06 0.04 0.04 0.03 0.03 0.05 0.06 0.07 0.05 0.04 0.02 0.02 0.02 0.02 0.01 0.02 0.02 0.03 0.00 0.02 0.03 0.02 0.04 0.04 0.08 0.07 0.04 0.05 0.04 0.05 0.04 0.03 0.01 0.04 0.05 0.05 0.05 0.04 0.02 0.02 0.03 0.02 0.02 0.01
0.00 0.00 0.00 0.00 0.00 0.00 0.00 0.00 0.00 0.01 0.01 0.01 0.01 0.02 0.03 0.02 0.02 0.02 0.03 0.04 0.05 0.05 0.06 0.06 0.06 0.06 0.05 0.06 0.03 0.05 0.07 0.11 0.17 0.18 0.12 0.13 0.13 0.14 0.18 0.20 0.08 0.05 0.03 0.04 0.03 0.03 0.04 0.06 0.08 0.03 0.02 0.02 0.03 0.05 0.06 0.14 0.10 0.07 0.03 0.05 0.08 0.08 0.03 0.03 0.04 0.04 0.04 0.02 0.03 0.05 0.05 0.03 0.02 0.01
0.00 0.00 0.00 0.00 0.00 0.00 0.00 0.00 0.00 0.01 0.01 0.01 0.01 0.02 0.02 0.02 0.02 0.02 0.02 0.02 0.02 0.02 0.03 0.04 0.06 0.06 0.08 0.10 0.12 0.07 0.08 0.13 0.15 0.12 0.08 0.16 0.24 0.14 0.30 0.25 0.07 0.04 0.05 0.04 0.04 0.14 0.08 0.19 0.14 0.10 0.10 0.08 0.11 0.04 0.01 0.02 0.09 0.08 0.10 0.08 0.06 0.06 0.04 0.03 0.05 0.07 0.18 0.10 0.09 0.08 0.03 0.03 0.04 0.02
0.00 0.00 0.00 0.00 0.00 0.00 0.00 0.00 0.00 0.01 0.01 0.01 0.01 0.02 0.02 0.02 0.02 0.02 0.01 0.01 0.01 0.02 0.13 0.12 0.09 0.24 0.06 0.03 0.07 0.04 0.05 0.03 0.04 0.09 0.11 0.17 0.17 0.27 0.22 0.33 0.25 0.23 0.20 0.34 0.25 0.25 0.25 0.22 0.21 0.15 0.16 0.16 0.20 0.09 0.01 0.00 0.01 0.14 0.10 0.16 0.05 0.13 0.18 0.25 0.25 0.21 0.03 0.05 0.13 0.15 0.06 0.06 0.03 0.02
0.00 0.00 0.01 0.01 0.00 0.00 0.00 0.00 0.00 0.01 0.01 0.02 0.02 0.02 0.03 0.04 0.05 0.05 0.05 0.05 0.04 0.03 0.12 0.06 0.02 0.03 0.03 0.03 0.03 0.04 0.07 0.11 0.29 0.26 0.29 0.21 0.17 0.20 0.25 0.13 0.18 0.24 0.28 0.27 0.25 0.34 0.24 0.38 0.37 0.34 0.20 0.08 0.12 0.06 0.02 0.03 0.06 0.02 0.12 0.23 0.24 0.14 0.22 0.18 0.33 0.32 0.11 0.06 0.06 0.07 0.18 0.15 0.06 0.04
0.00 0.00 0.00 0.00 0.01 0.01 0.01 0.01 0.01 0.01 0.01 0.02 0.02 0.03 0.04 0.05 0.06 0.06 0.05 0.03 0.03 0.05 0.06 0.07 0.18 0.16 0.21 0.31 0.32 0.46 0.81 0.53 0.44 0.43 0.54 0.59 0.31 0.58 0.58 0.54 0.49 0.31 0.23 0.26 0.22 0.37 0.56 0.57 0.76 0.61 0.69 0.39 0.19 0.13 0.05 0.01 0.05 0.09 0.09 0.11 0.13 0.08 0.04 0.13 0.09 0.11 0.15 0.20 0.13 0.09 0.09 0.06 0.05 0.04
0.00 0.00 0.00 0.00 0.01 0.01 0.01 0.02 0.02 0.02 0.02 0.02 0.03 0.03 0.03 0.04 0.04 0.04 0.04 0.05 0.08 0.13 0.15 0.17 0.12 0.12 0.14 0.14 0.15 0.15 0.13 0.13 0.16 0.15 0.15 0.11 0.22 0.28 0.24 0.16 0.28 0.36 0.32 0.36 0.53 0.60 0.49 0.28 0.32 0.30 0.30 0.65 0.41 0.21 0.22 0.11 0.10 0.13 0.27 0.20 0.30 0.07 0.03 0.03 0.01 0.01 0.02 0.03 0.02 0.02 0.03 0.03 0.03 0.03
0.00 0.00 0.00 0.00 0.00 0.00 0.01 0.03 0.03 0.03 0.03 0.04 0.04 0.05 0.06 0.06 0.06 0.06 0.06 0.07 0.08 0.08 0.08 0.09 0.10 0.12 0.12 0.13 0.15 0.16 0.19 0.19 0.17 0.21 0.28 0.48 0.41 0.30 0.19 0.20 0.23 0.26 0.35 0.27 0.15 0.10 0.17 0.40 0.23 0.35 0.23 0.09 0.07 0.12 0.19 0.03 0.02 0.01 0.03 0.04 0.04 0.02 0.05 0.06 0.07 0.04 0.02 0.01 0.01 0.01 0.00 0.00 0.00 0.00
0.00 0.00 0.00 0.00 0.00 0.00 0.00 0.00 0.02 0.03 0.05 0.06 0.07 0.08 0.09 0.09 0.08 0.07 0.06 0.05 0.05 0.08 0.10 0.13 0.14 0.13 0.13 0.13 0.13 0.13 0.12 0.13 0.22 0.11 0.14 0.09 0.08 0.08 0.06 0.09 0.10 0.05 0.05 0.06 0.12 0.04 0.05 0.02 0.14 0.02 0.03 0.16 0.28 0.17 0.14 0.05 0.02 0.03 0.08 0.06 0.02 0.14 0.20 0.08 0.11 0.02 0.02 0.01 0.02 0.02 0.02 0.01 0.00 0.00
0.00 0.00 0.00 0.00 0.00 0.00 0.00 0.00 0.00 0.00 0.00 0.02 0.04 0.06 0.08 0.09 0.09 0.09 0.08 0.08 0.07 0.07 0.06 0.06 0.08 0.09 0.11 0.11 0.09 0.08 0.07 0.06 0.06 0.05 0.05 0.04 0.03 0.03 0.02 0.01 0.01 0.02 0.01 0.04 0.07 0.04 0.04 0.01 0.01 0.01 0.01 0.02 0.06 0.03 0.05 0.12 0.09 0.07 0.35 0.06 0.08 0.13 0.00 0.00 0.00 0.00 0.00 0.00 0.00 0.01 0.01 0.00 0.00 0.00
0.00 0.00 0.00 0.00 0.00 0.00 0.00 0.00 0.00 0.00 0.00 0.00 0.00 0.00 0.01 0.02 0.02 0.03 0.04 0.04 0.05 0.06 0.06 0.06 0.07 0.07 0.08 0.09 0.09 0.09 0.10 0.10 0.10 0.10 0.10 0.10 0.10 0.10 0.09 0.09 0.08 0.07 0.06 0.04 0.03 0.02 0.04 0.07 0.12 0.06 0.02 0.01 0.01 0.00 0.00 0.00 0.00 0.00 0.00 0.00 0.00 0.00 0.00 0.00 0.00 0.00 0.00 0.00 0.00 0.02 0.01 0.01 0.02 0.01
0.00 0.00 0.00 0.00 0.00 0.00 0.00 0.00 0.00 0.00 0.00 0.00 0.00 0.00 0.00 0.00 0.00 0.00 0.00 0.00 0.00 0.00 0.00 0.01 0.01 0.02 0.02 0.02 0.03 0.04 0.05 0.06 0.07 0.08 0.09 0.10 0.11 0.13 0.14 0.14 0.13 0.12 0.12 0.37 0.10 0.10 0.09 0.08 0.08 0.09 0.20 0.11 0.04 0.04 0.04 0.03 0.04 0.02 0.01 0.00 0.00 0.01 0.00 0.00 0.00 0.00 0.00 0.00 0.00 0.00 0.00 0.00 0.00 0.00
0.00 0.00 0.00 0.00 0.00 0.00 0.00 0.00 0.00 0.00 0.00 0.00 0.00 0.00 0.00 0.00 0.00 0.00 0.00 0.00 0.00 0.00 0.00 0.00 0.00 0.00 0.00 0.00 0.00 0.00 0.00 0.00 0.00 0.00 0.00 0.01 0.01 0.01 0.02 0.03 0.03 0.04 0.04 0.05 0.06 0.06 0.07 0.07 0.08 0.09 0.09 0.09 0.12 0.08 0.06 0.06 0.06 0.05 0.04 0.03 0.02 0.01 0.00 0.00 0.00 0.00 0.00 0.00 0.00 0.00 0.00 0.00 0.00 0.00
MSLP
1017.05 1017.25 1017.29 1017.13 1017.01 1017.05 1017.01 1017.21 1017.21 1017.37 1017.57 1017.69 1017.81 1017.97 1018.53 1018.77 1019.49 1019.69 1019.49 1018.81 1018.65 1017.53 1017.13 1018.01 1017.41 1017.29 1017.45 1017.97 1017.97 1018.25 1018.49 1018.53 1019.17 1019.49 1019.65 1019.73 1019.73 1020.25 1020.77 1021.01 1021.17 1021.21 1021.33 1021.49 1021.65 1021.69 1021.81 1022.05 1022.21 1022.41 1022.65 1022.89 1023.17 1023.45 1023.69 1023.85 1024.01 1024.13 1024.29 1024.45 1024.57 1024.77 1024.97 1025.13 1025.25 1025.41 1025.57 1025.73 1025.81 1025.93 1026.17 1026.41 1026.61 1026.81
1016.73 1017.69 1017.81 1017.61 1017.05 1016.81 1017.01 1017.13 1017.21 1017.33 1017.49 1017.69 1017.77 1017.89 1017.93 1018.21 1019.09 1019.17 1019.61 1019.13 1017.93 1017.81 1016.93 1017.09 1017.37 1016.97 1017.17 1017.41 1017.81 1017.85 1018.05 1018.29 1018.77 1018.85 1019.05 1019.33 1019.29 1019.57 1020.13 1020.53 1020.81 1021.01 1021.13 1021.25 1021.37 1021.45 1021.49 1021.61 1021.81 1022.01 1022.29 1022.53 1022.77 1023.05 1023.29 1023.53 1023.73 1023.85 1023.97 1024.09 1024.25 1024.41 1024.57 1024.69 1024.89 1025.05 1025.21 1025.37 1025.53 1025.61 1025.73 1025.93 1026.17 1026.41
1016.33 1016.81 1017.25 1016.89 1016.89 1016.81 1017.01 1017.05 1017.13 1017.21 1017.33 1017.45 1017.53 1017.65 1017.73 1017.93 1018.25 1018.65 1018.89 1019.53 1018.01 1017.33 1017.85 1017.01 1016.61 1016.81 1016.77 1016.85 1017.29 1017.53 1017.53 1017.93 1018.41 1018.53 1018.61 1018.73 1018.93 1019.45 1019.77 1020.09 1020.37 1020.57 1020.77 1020.89 1021.05 1021.21 1021.29 1021.33 1021.41 1021.57 1021.81 1022.05 1022.29 1022.53 1022.81 1023.05 1023.29 1023.53 1023.69 1023.85 1024.05 1024.17 1024.33 1024.45 1024.57 1024.73 1024.89 1024.97 1025.09 1025.25 1025.41 1025.57 1025.73 1025.89
1016.21 1016.41 1016.61 1016.65 1016.65 1016.69 1016.85 1017.01 1017.05 1017.09 1017.09 1017.21 1017.37 1017.41 1017.53 1017.61 1017.73 1018.05 1018.57 1018.93 1018.69 1017.33 1017.29 1017.09 1016.73 1016.53 1016.65 1016.49 1017.01 1017.29 1017.37 1017.57 1018.13 1018.17 1018.33 1018.33 1018.73 1019.17 1019.33 1019.89 1020.01 1020.25 1020.37 1020.53 1020.65 1020.81 1020.97 1021.09 1021.17 1021.21 1021.33 1021.53 1021.73 1021.97 1022.21 1022.49 1022.73 1023.01 1023.29 1023.49 1023.69 1023.85 1023.97 1024.13 1024.21 1024.29 1024.37 1024.49 1024.53 1024.69 1024.85 1025.01 1025.17 1025.33
1016.21 1016.25 1016.37 1016.33 1016.41 1016.45 1016.77 1016.77 1016.77 1016.81 1016.85 1016.97 1017.13 1017.13 1017.25 1017.49 1017.45 1017.81 1018.21 1018.57 1018.37 1017.49 1016.81 1016.93 1016.93 1016.41 1016.37 1016.65 1016.69 1017.09 1017.21 1017.65 1017.97 1017.97 1017.97 1018.13 1018.45 1018.73 1018.77 1018.93 1019.65 1019.93 1020.09 1020.21 1020.29 1020.45 1020.61 1020.77 1020.89 1020.93 1020.97 1021.09 1021.25 1021.41 1021.61 1021.89 1022.17 1022.37 1022.65 1022.85 1023.09 1023.33 1023.53 1023.69 1023.77 1023.85 1023.93 1023.97 1024.01 1024.09 1024.21 1024.37 1024.53 1024.73
1016.13 1016.21 1016.29 1016.21 1016.21 1016.21 1016.49 1016.57 1016.57 1016.49 1016.65 1016.69 1016.89 1016.97 1017.09 1017.21 1017.21 1017.13 1017.81 1017.93 1018.05 1018.05 1017.09 1016.97 1016.49 1016.73 1016.41 1016.89 1016.29 1016.93 1017.17 1017.21 1017.45 1017.85 1017.85 1017.85 1017.97 1018.37 1018.49 1018.33 1018.45 1019.25 1019.69 1019.97 1020.13 1020.17 1020.17 1020.29 1020.49 1020.65 1020.73 1020.81 1020.97 1021.13 1021.25 1021.41 1021.61 1021.81 1021.97 1022.17 1022.41 1022.61 1022.85 1023.09 1023.29 1023.33 1023.41 1023.49 1023.57 1023.61 1023.69 1023.81 1023.97 1024.13
1016.01 1016.25 1016.41 1016.37 1016.21 1016.09 1016.33 1016.45 1016.41 1016.29 1016.41 1016.45 1016.57 1016.73 1016.69 1016.93 1016.93 1016.85 1017.05 1017.57 1017.81 1017.73 1017.37 1016.73 1016.73 1016.65 1016.57 1016.85 1016.57 1016.37 1016.61 1016.73 1016.81 1017.33 1017.53 1017.53 1017.53 1017.69 1017.97 1017.97 1017.65 1018.17 1018.85 1019.45 1019.77 1019.97 1020.05 1020.05 1020.17 1020.37 1020.57 1020.69 1020.77 1020.93 1021.05 1021.17 1021.33 1021.41 1021.53 1021.65 1021.81 1022.05 1022.25 1022.41 1022.61 1022.77 1022.89 1022.97 1023.05 1023.13 1023.21 1023.33 1023.45 1023.65
1015.89 1016.05 1016.25 1016.33 1016.21 1016.09 1016.29 1016.33 1016.41 1016.33 1016.29 1016.37 1016.37 1016.41 1016.33 1016.45 1016.65 1016.65 1016.73 1016.89 1017.33 1017.29 1017.49 1016.73 1016.61 1016.13 1016.41 1016.37 1016.25 1016.05 1016.05 1016.45 1016.73 1016.77 1016.81 1017.01 1017.25 1017.29 1017.61 1017.77 1017.65 1017.57 1018.13 1018.65 1019.21 1019.57 1019.81 1019.97 1020.05 1020.09 1020.17 1020.37 1020.57 1020.73 1020.85 1020.89 1020.97 1021.09 1021.17 1021.29 1021.41 1021.57 1021.77 1021.93 1022.09 1022.21 1022.25 1022.33 1022.49 1022.61 1022.69 1022.85 1022.97 1023.09
1015.81 1015.81 1015.97 1015.97 1016.05 1016.09 1016.21 1016.17 1016.17 1016.09 1016.29 1016.21 1016.13 1016.21 1016.05 1016.05 1016.13 1016.29 1016.41 1016.57 1016.73 1017.17 1017.37 1017.01 1016.33 1016.01 1015.93 1015.73 1015.85 1015.81 1016.13 1016.13 1016.33 1016.37 1016.49 1016.61 1016.81 1016.93 1017.05 1017.33 1017.37 1017.45 1017.93 1018.09 1018.45 1018.93 1019.33 1019.65 1019.85 1019.93 1020.01 1020.05 1020.17 1020.33 1020.45 1020.53 1020.65 1020.73 1020.81 1020.89 1021.05 1021.17 1021.33 1021.45 1021.57 1021.65 1021.69 1021.77 1021.85 1021.97 1022.13 1022.29 1022.49 1022.61
1015.61 1015.65 1015.61 1015.65 1015.93 1015.97 1016.09 1016.09 1016.01 1015.85 1016.01 1016.01 1016.01 1016.01 1015.93 1015.65 1015.65 1015.97 1016.13 1016.25 1016.41 1016.65 1016.85 1016.89 1016.81 1016.25 1016.33 1016.33 1016.09 1015.73 1015.73 1015.97 1016.17 1016.29 1016.17 1016.25 1016.37 1016.61 1017.05 1017.25 1017.25 1017.13 1017.49 1017.85 1018.13 1018.49 1018.85 1019.09 1019.37 1019.57 1019.65 1019.73 1019.77 1019.85 1019.93 1020.01 1020.17 1020.29 1020.41 1020.49 1020.57 1020.65 1020.77 1020.89 1021.01 1021.17 1021.25 1021.33 1021.41 1021.49 1021.61 1021.77 1021.93 1022.09
1015.65 1015.37 1015.33 1015.37 1015.45 1015.53 1015.57 1015.93 1016.17 1016.05 1015.85 1015.73 1015.69 1015.69 1015.73 1015.65 1015.57 1015.73 1015.89 1015.93 1016.13 1016.33 1016.45 1016.41 1016.45 1016.41 1016.01 1015.97 1016.29 1015.65 1015.41 1015.53 1015.69 1016.01 1016.25 1016.53 1016.21 1016.41 1016.73 1017.13 1016.89 1016.89 1017.01 1017.05 1017.29 1017.57 1017.89 1018.21 1018.61 1018.89 1019.13 1019.25 1019.33 1019.37 1019.45 1019.49 1019.61 1019.73 1019.89 1020.01 1020.13 1020.25 1020.33 1020.37 1020.45 1020.57 1020.73 1020.85 1020.97 1021.09 1021.25 1021.37 1021.49 1021.57
1015.77 1015.53 1015.49 1015.37 1015.17 1015.21 1015.17 1015.33 1015.61 1015.49 1015.57 1015.45 1015.49 1015.33 1015.37 1015.41 1015.53 1015.65 1015.61 1015.77 1015.85 1016.01 1016.09 1016.13 1016.09 1015.97 1015.97 1015.93 1015.93 1015.69 1015.93 1016.17 1015.73 1015.37 1015.61 1016.17 1016.25 1016.25 1016.17 1016.25 1016.49 1016.37 1016.57 1016.69 1016.89 1017.13 1017.49 1017.77 1018.01 1018.21 1018.37 1018.49 1018.57 1018.73 1018.89 1018.97 1019.05 1019.13 1019.25 1019.37 1019.49 1019.61 1019.65 1019.73 1019.89 1020.05 1020.21 1020.37 1020.53 1020.69 1020.85 1020.97 1021.09 1021.17
1015.61 1015.53 1015.41 1015.33 1015.21 1015.09 1015.13 1015.29 1015.45 1015.41 1015.49 1015.37 1015.25 1015.25 1015.69 1015.49 1015.41 1015.45 1015.49 1015.53 1015.69 1015.69 1015.73 1015.81 1015.61 1015.77 1015.77 1015.53 1015.61 1015.69 1015.89 1015.77 1015.61 1015.13 1015.17 1015.49 1015.29 1015.37 1015.81 1015.77 1015.65 1015.77 1016.01 1016.13 1016.29 1016.57 1016.85 1017.25 1017.25 1017.29 1017.41 1017.33 1017.77 1018.01 1018.05 1018.01 1018.21 1018.41 1018.61 1018.69 1018.73 1018.85 1018.93 1019.01 1019.21 1019.37 1019.53 1019.69 1019.85 1020.05 1020.17 1020.33 1020.49 1020.65
1015.53 1015.37 1015.21 1015.09 1015.13 1015.13 1015.25 1015.37 1015.49 1015.57 1015.57 1015.61 1015.61 1015.45 1015.57 1015.21 1015.17 1015.25 1015.41 1015.45 1015.25 1015.29 1015.49 1015.45 1015.41 1015.61 1015.53 1015.33 1015.33 1015.29 1015.05 1014.89 1014.85 1015.13 1015.25 1015.65 1015.29 1015.25 1015.33 1015.21 1015.21 1015.21 1015.61 1015.89 1016.13 1016.01 1015.89 1016.33 1016.53 1016.49 1016.49 1016.33 1016.85 1016.89 1017.17 1017.13 1017.01 1017.29 1017.57 1017.61 1017.77 1017.97 1018.09 1018.29 1018.41 1018.45 1018.53 1018.69 1018.93 1019.13 1019.33 1019.53 1019.73 1019.97
1015.69 1015.53 1015.29 1015.17 1015.17 1015.25 1015.33 1015.33 1015.41 1015.45 1015.53 1015.49 1015.49 1015.57 1015.53 1015.61 1015.93 1015.89 1015.77 1015.37 1014.97 1015.01 1015.09 1014.97 1015.17 1015.29 1015.37 1015.29 1015.17 1015.61 1015.53 1014.65 1014.85 1014.97 1014.97 1015.01 1015.13 1015.41 1015.89 1016.09 1014.93 1014.33 1014.89 1015.53 1015.85 1015.69 1015.29 1015.65 1015.97 1015.73 1015.65 1015.49 1015.57 1015.81 1015.81 1015.85 1016.37 1016.57 1016.57 1016.69 1016.89 1017.05 1017.25 1017.49 1017.69 1017.81 1017.89 1018.01 1018.13 1018.25 1018.45 1018.65 1018.93 1019.17
1015.33 1015.37 1015.33 1015.25 1015.13 1015.09 1015.01 1015.01 1015.05 1015.25 1015.41 1015.45 1015.49 1015.53 1015.53 1015.53 1015.53 1015.65 1015.69 1015.49 1015.53 1015.13 1014.93 1014.93 1014.89 1014.97 1014.97 1014.97 1014.81 1015.13 1015.65 1014.77 1014.61 1014.61 1014.65 1014.69 1014.77 1014.97 1015.21 1015.21 1015.29 1014.09 1014.17 1014.85 1015.25 1015.33 1014.61 1014.69 1015.13 1015.29 1014.85 1014.61 1014.45 1014.41 1014.61 1015.05 1015.37 1015.57 1015.73 1015.81 1015.97 1016.21 1016.41 1016.57 1016.81 1017.01 1017.29 1017.49 1017.65 1017.77 1017.89 1018.01 1018.17 1018.37
1014.61 1014.89 1015.01 1015.01 1014.97 1014.93 1015.01 1015.05 1014.97 1014.89 1014.97 1015.29 1015.41 1015.37 1015.41 1015.41 1015.37 1015.29 1015.41 1015.45 1015.33 1014.85 1014.77 1014.65 1014.45 1014.33 1014.33 1014.53 1014.57 1014.57 1014.45 1014.05 1014.53 1014.41 1014.45 1014.33 1014.33 1014.29 1014.49 1014.53 1014.29 1013.77 1013.61 1014.37 1014.77 1014.81 1014.01 1013.77 1014.29 1014.65 1014.17 1014.01 1013.77 1013.57 1013.77 1014.09 1014.37 1014.61 1014.81 1015.01 1015.25 1015.49 1015.73 1015.93 1016.13 1016.33 1016.57 1016.81 1017.05 1017.29 1017.45 1017.61 1017.73 1017.81
1014.41 1014.45 1014.57 1014.69 1014.73 1014.69 1014.69 1014.69 1014.77 1014.81 1014.85 1014.85 1015.13 1015.37 1015.45 1015.25 1015.05 1015.09 1015.09 1015.01 1015.17 1015.29 1015.05 1014.69 1014.49 1013.81 1013.57 1013.89 1013.93 1013.77 1013.57 1014.05 1014.29 1014.37 1014.45 1013.93 1013.97 1014.05 1013.97 1013.53 1013.49 1013.17 1013.09 1014.13 1014.21 1014.45 1013.73 1013.13 1013.41 1013.77 1013.37 1013.29 1013.33 1013.09 1012.81 1013.09 1013.25 1013.49 1013.81 1014.13 1014.49 1014.73 1015.01 1015.25 1015.49 1015.73 1015.89 1016.05 1016.29 1016.53 1016.73 1016.93 1017.05 1017.17
1014.49 1014.41 1014.45 1014.53 1014.53 1014.53 1014.61 1014.57 1014.69 1014.65 1014.57 1014.53 1014.45 1014.45 1014.45 1014.45 1014.21 1014.29 1014.53 1014.69 1014.69 1014.77 1014.65 1014.33 1014.01 1013.65 1013.37 1013.29 1013.25 1013.37 1013.21 1013.25 1013.37 1013.37 1013.65 1013.49 1013.21 1013.13 1012.97 1013.01 1012.97 1013.09 1013.05 1013.21 1013.85 1014.37 1013.09 1012.53 1013.09 1012.93 1012.41 1012.29 1012.45 1012.25 1012.33 1012.61 1012.73 1012.85 1013.09 1013.33 1013.61 1013.85 1014.09 1014.37 1014.61 1014.81 1015.01 1015.25 1015.41 1015.57 1015.77 1016.01 1016.21 1016.33
1014.45 1014.41 1014.41 1014.45 1014.37 1014.29 1014.25 1014.33 1014.61 1014.81 1014.81 1014.69 1014.53 1014.37 1014.13 1013.89 1013.73 1013.49 1013.29 1013.41 1013.57 1013.53 1013.45 1013.41 1013.29 1013.05 1012.89 1012.93 1012.93 1012.97 1012.93 1013.01 1012.93 1013.09 1012.89 1013.05 1013.49 1013.37 1013.45 1013.57 1013.17 1013.21 1012.33 1012.41 1013.29 1013.57 1012.85 1012.01 1012.49 1012.33 1011.73 1011.73 1011.93 1011.73 1011.53 1011.45 1011.85 1012.21 1012.41 1012.53 1012.65 1012.89 1013.13 1013.41 1013.65 1013.89 1014.17 1014.41 1014.61 1014.81 1014.97 1015.17 1015.33 1015.49
1014.37 1014.25 1014.09 1013.93 1013.89 1013.89 1013.89 1013.93 1014.33 1014.73 1014.93 1014.89 1014.73 1014.53 1014.25 1013.93 1013.69 1013.37 1012.97 1012.89 1013.05 1013.13 1013.09 1012.97 1012.93 1012.89 1012.85 1012.93 1012.97 1012.97 1013.09 1013.21 1013.25 1013.61 1014.21 1014.37 1013.33 1013.57 1013.69 1013.41 1013.17 1012.65 1012.13 1011.89 1012.33 1012.73 1012.65 1011.73 1011.81 1012.01 1011.53 1011.29 1011.37 1011.33 1010.97 1010.53 1010.93 1011.33 1011.65 1011.85 1012.05 1012.21 1012.37 1012.53 1012.73 1012.97 1013.29 1013.57 1013.77 1013.93 1014.13 1014.29 1014.49 1014.81
1014.17 1014.01 1014.09 1014.13 1013.97 1013.85 1013.69 1014.05 1015.05 1015.33 1015.33 1014.85 1014.53 1014.25 1014.05 1013.89 1013.61 1013.29 1013.01 1012.69 1012.49 1012.61 1012.73 1012.73 1012.69 1012.65 1012.65 1012.73 1012.81 1012.85 1012.93 1013.01 1013.25 1013.45 1013.61 1013.09 1013.05 1013.13 1013.09 1013.25 1012.73 1012.05 1011.53 1011.49 1011.57 1012.49 1012.13 1011.45 1011.25 1011.69 1011.25 1011.05 1010.81 1010.61 1010.33 1010.13 1010.09 1010.69 1011.05 1011.33 1011.49 1011.69 1011.73 1011.77 1011.93 1012.21 1012.45 1012.65 1012.81 1013.13 1013.41 1013.65 1014.13 1014.97
1013.89 1013.73 1013.69 1013.97 1014.25 1014.33 1014.37 1014.65 1014.73 1014.97 1015.13 1014.89 1014.57 1014.25 1014.01 1013.73 1013.45 1013.13 1012.85 1012.69 1012.49 1012.25 1012.25 1012.37 1012.53 1012.49 1012.45 1012.45 1012.37 1012.25 1012.37 1012.57 1012.81 1012.73 1012.53 1012.41 1012.49 1012.49 1012.33 1012.17 1012.17 1012.25 1011.29 1010.57 1010.69 1012.01 1011.57 1011.65 1010.93 1011.09 1011.45 1011.41 1010.21 1009.77 1009.73 1009.85 1009.73 1009.89 1010.37 1010.77 1011.17 1011.25 1011.41 1011.53 1011.73 1011.89 1012.09 1012.33 1012.61 1012.93 1013.17 1013.49 1014.37 1014.77
1014.73 1014.53 1014.29 1014.21 1014.29 1014.57 1014.81 1014.93 1015.05 1015.05 1015.09 1015.01 1014.57 1014.41 1014.21 1013.89 1013.53 1012.89 1012.65 1012.49 1012.37 1012.17 1012.13 1011.89 1011.77 1011.77 1011.57 1011.45 1011.45 1011.45 1011.45 1011.61 1011.85 1011.97 1011.93 1011.89 1011.69 1011.61 1011.49 1011.37 1011.41 1011.41 1010.73 1009.93 1009.89 1010.93 1010.69 1010.73 1010.69 1010.21 1010.57 1011.17 1010.97 1009.61 1009.09 1009.21 1009.13 1009.25 1009.49 1009.73 1009.97 1010.25 1010.81 1011.17 1011.49 1011.61 1011.77 1011.89 1012.09 1012.29 1012.53 1012.93 1013.73 1013.93
1014.65 1014.41 1014.17 1013.77 1014.33 1015.09 1015.33 1015.57 1015.81 1015.89 1015.93 1016.05 1015.57 1014.73 1014.05 1013.77 1013.81 1013.97 1013.45 1012.97 1012.81 1012.65 1012.45 1012.21 1011.85 1011.53 1011.25 1010.93 1010.73 1010.69 1010.69 1010.65 1010.69 1010.93 1011.01 1010.89 1010.89 1010.93 1011.01 1010.89 1010.65 1010.37 1009.73 1009.41 1009.41 1009.85 1010.37 1010.09 1010.17 1009.97 1009.93 1009.89 1009.73 1009.89 1009.17 1008.89 1008.77 1008.97 1008.65 1008.81 1009.01 1008.93 1009.53 1010.05 1010.37 1010.49 1010.81 1011.13 1011.29 1011.45 1011.73 1012.09 1012.73 1012.97
1014.49 1014.37 1014.13 1014.05 1014.69 1015.33 1015.57 1015.61 1015.73 1015.77 1015.89 1016.01 1015.85 1015.17 1014.93 1014.77 1014.65 1014.33 1013.89 1013.45 1013.01 1012.61 1012.33 1012.01 1011.69 1011.37 1011.17 1010.97 1010.53 1010.09 1009.93 1009.85 1009.81 1009.93 1010.01 1010.01 1009.93 1009.81 1009.85 1010.05 1010.13 1009.97 1009.53 1009.09 1009.21 1009.17 1009.57 1009.45 1009.29 1009.65 1009.57 1009.69 1009.49 1009.29 1009.41 1008.93 1008.41 1008.25 1008.13 1008.25 1008.57 1008.65 1008.57 1008.81 1009.33 1009.57 1009.49 1009.65 1010.09 1010.45 1010.57 1010.93 1011.57 1011.89
1015.57 1015.29 1015.21 1015.09 1015.33 1015.57 1015.65 1015.65 1015.61 1015.61 1015.57 1015.53 1015.05 1014.97 1015.09 1015.09 1015.09 1015.05 1014.41 1013.85 1013.49 1013.05 1012.65 1012.25 1011.85 1011.53 1011.25 1011.01 1010.73 1010.41 1010.01 1009.65 1009.53 1009.45 1009.45 1009.45 1009.41 1009.33 1009.09 1009.05 1009.13 1009.45 1009.53 1009.25 1009.41 1009.37 1009.09 1008.77 1008.49 1008.97 1009.21 1009.09 1009.29 1008.93 1008.93 1009.05 1008.61 1008.01 1008.09 1008.01 1008.09 1008.13 1008.17 1008.25 1008.37 1008.49 1008.61 1008.73 1008.61 1008.85 1009.49 1010.01 1010.57 1010.93
1015.89 1015.85 1015.89 1015.89 1015.89 1015.81 1015.61 1015.53 1015.45 1015.37 1015.41 1015.21 1015.01 1015.05 1014.97 1014.97 1015.13 1014.97 1014.61 1014.09 1013.57 1013.29 1013.01 1012.65 1012.21 1011.73 1011.25 1010.97 1010.65 1010.33 1009.93 1009.61 1009.41 1009.29 1009.57 1009.57 1009.09 1008.93 1008.77 1008.69 1008.73 1008.73 1008.93 1008.97 1008.77 1008.93 1009.73 1009.21 1008.53 1008.29 1008.53 1008.81 1008.93 1008.81 1008.61 1007.89 1007.89 1007.89 1008.05 1007.61 1007.57 1007.69 1007.73 1007.85 1008.01 1008.05 1008.01 1007.97 1008.01 1008.21 1008.73 1009.17 1009.77 1010.53
1015.97 1016.13 1016.25 1016.09 1015.81 1015.61 1015.41 1015.25 1015.13 1014.89 1014.65 1014.65 1014.57 1014.57 1014.49 1014.61 1014.53 1014.29 1013.97 1013.61 1013.25 1012.93 1012.53 1012.13 1011.77 1011.49 1011.17 1010.77 1010.29 1009.97 1009.73 1009.57 1009.45 1009.33 1009.01 1008.77 1008.53 1008.61 1008.61 1008.57 1008.65 1008.57 1008.45 1008.41 1008.49 1008.65 1008.65 1008.65 1008.57 1008.25 1008.41 1008.41 1008.61 1008.45 1008.29 1007.97 1007.49 1007.25 1007.29 1007.61 1007.65 1007.25 1007.17 1007.33 1007.45 1007.57 1007.61 1007.57 1007.65 1007.73 1007.65 1007.61 1008.01 1009.09
1016.09 1016.09 1015.97 1015.73 1015.49 1015.09 1015.05 1014.69 1014.49 1014.49 1014.45 1014.37 1014.13 1013.89 1013.89 1013.93 1013.85 1013.69 1013.41 1013.09 1012.89 1012.61 1012.25 1011.97 1011.69 1011.17 1010.73 1010.37 1009.93 1009.73 1009.61 1009.49 1009.29 1009.13 1009.01 1008.97 1008.89 1009.21 1009.09 1009.05 1008.69 1008.21 1007.97 1007.93 1007.97 1008.01 1007.97 1008.17 1008.41 1008.57 1008.81 1009.01 1009.73 1009.45 1008.93 1008.25 1007.57 1007.13 1006.93 1007.05 1006.81 1006.49 1006.37 1006.53 1006.85 1006.93 1007.13 1007.29 1007.29 1007.25 1007.09 1007.17 1007.25 1007.89
1015.49 1015.53 1015.61 1015.49 1015.41 1015.21 1015.09 1014.93 1014.85 1014.73 1014.57 1014.37 1014.13 1013.93 1013.81 1013.77 1013.73 1013.57 1013.33 1012.93 1012.33 1012.01 1012.09 1011.89 1011.57 1011.09 1010.61 1010.25 1010.05 1009.77 1009.57 1009.41 1009.13 1008.97 1008.85 1008.69 1008.65 1008.69 1008.37 1008.33 1008.21 1007.81 1007.57 1007.45 1007.25 1007.37 1007.49 1007.69 1007.85 1008.29 1008.81 1008.61 1008.49 1008.45 1008.25 1008.17 1007.69 1007.01 1006.69 1006.45 1006.61 1007.17 1006.41 1006.17 1006.13 1006.33 1006.53 1006.65 1006.57 1006.45 1006.57 1006.69 1006.77 1006.77
1015.17 1014.89 1014.73 1014.69 1014.77 1014.69 1014.57 1014.49 1014.17 1014.05 1014.09 1014.37 1014.49 1014.45 1014.41 1014.29 1014.29 1014.09 1013.81 1013.53 1013.37 1013.33 1013.05 1012.45 1011.81 1011.21 1010.69 1010.29 1009.85 1009.53 1009.29 1008.97 1008.77 1008.65 1008.61 1008.53 1008.73 1008.49 1007.77 1007.77 1007.53 1007.29 1007.09 1007.25 1007.01 1006.93 1007.13 1007.49 1007.77 1007.89 1008.01 1008.41 1008.49 1007.57 1007.21 1007.21 1007.09 1007.01 1006.61 1006.41 1006.29 1006.13 1006.09 1006.25 1006.17 1006.01 1006.09 1006.33 1006.41 1006.25 1006.13 1006.17 1006.25 1006.25
1014.73 1014.49 1014.37 1014.49 1014.25 1014.21 1014.69 1014.57 1014.61 1014.41 1014.25 1014.21 1013.97 1014.29 1014.49 1014.45 1014.53 1014.41 1014.33 1014.25 1014.17 1014.01 1013.61 1013.25 1012.93 1012.45 1011.89 1011.37 1010.81 1010.21 1009.81 1009.37 1009.01 1008.53 1008.17 1007.93 1008.01 1007.93 1007.65 1007.29 1006.93 1006.89 1007.21 1007.21 1006.77 1006.45 1006.37 1006.33 1006.37 1006.41 1006.53 1006.73 1006.93 1007.17 1007.53 1007.33 1006.81 1006.49 1006.49 1006.61 1006.53 1006.29 1006.05 1005.81 1005.89 1005.93 1005.85 1006.01 1005.89 1005.57 1005.53 1005.49 1005.57 1005.77
1013.89 1014.37 1013.89 1014.33 1014.09 1013.97 1014.21 1014.37 1014.69 1014.81 1015.05 1014.89 1014.57 1014.45 1014.69 1014.57 1014.77 1014.77 1014.77 1014.77 1014.69 1014.49 1014.17 1013.89 1013.57 1013.33 1013.01 1012.57 1012.21 1011.85 1011.41 1010.69 1010.25 1009.81 1009.53 1009.05 1008.69 1008.77 1008.61 1007.89 1007.13 1006.89 1007.01 1006.97 1006.81 1006.69 1006.33 1005.85 1005.45 1005.57 1005.69 1005.73 1005.73 1005.89 1006.01 1006.61 1006.73 1006.49 1006.21 1006.21 1006.21 1006.45 1005.85 1005.65 1005.53 1005.29 1005.41 1005.53 1005.61 1005.81 1005.57 1005.17 1005.05 1005.05
1015.17 1014.33 1014.65 1014.77 1014.93 1015.29 1015.29 1015.21 1015.37 1014.81 1014.93 1015.25 1015.21 1015.05 1014.93 1014.93 1015.13 1014.97 1014.85 1015.01 1014.69 1014.53 1014.33 1014.17 1014.05 1013.73 1013.41 1013.21 1012.93 1012.61 1012.17 1011.93 1011.25 1010.29 1009.85 1009.49 1009.09 1008.93 1008.61 1008.13 1007.53 1006.89 1006.89 1006.89 1006.53 1006.09 1006.05 1005.93 1005.85 1006.01 1005.69 1005.49 1005.57 1005.21 1005.01 1005.17 1005.85 1006.05 1006.05 1006.05 1005.93 1006.05 1006.05 1005.81 1005.81 1005.61 1005.77 1006.13 1006.09 1005.85 1005.45 1004.93 1004.73 1004.49
1015.85 1015.69 1015.61 1015.61 1015.81 1015.73 1015.85 1015.93 1015.77 1015.69 1015.37 1015.21 1015.53 1015.41 1015.41 1015.45 1015.57 1015.45 1015.41 1015.45 1015.05 1014.85 1014.61 1014.25 1014.17 1013.93 1013.65 1013.41 1013.25 1012.89 1012.45 1012.29 1011.53 1011.21 1010.93 1010.57 1010.49 1010.13 1009.69 1009.41 1009.17 1008.53 1007.97 1007.41 1007.21 1007.21 1006.77 1005.73 1005.05 1005.17 1005.61 1005.65 1005.81 1005.93 1005.45 1004.89 1005.17 1005.57 1005.77 1005.73 1005.85 1005.89 1005.73 1005.93 1005.89 1005.69 1005.73 1005.25 1005.41 1005.41 1005.09 1004.93 1004.65 1004.45
1016.21 1016.13 1016.13 1016.09 1016.09 1016.17 1016.33 1016.41 1016.33 1016.17 1016.13 1016.01 1015.81 1015.69 1015.73 1015.69 1015.69 1015.61 1015.73 1015.53 1015.37 1015.21 1015.17 1014.61 1014.25 1014.29 1014.01 1013.97 1013.65 1013.13 1012.77 1012.41 1012.01 1011.77 1011.37 1011.01 1010.85 1010.49 1010.05 1009.65 1009.53 1009.37 1009.05 1008.57 1008.25 1007.93 1007.69 1007.61 1007.05 1006.21 1005.61 1005.49 1005.65 1005.53 1005.25 1004.77 1004.73 1004.89 1005.13 1005.69 1005.45 1005.33 1005.65 1005.89 1005.73 1005.57 1005.05 1004.81 1004.89 1004.93 1005.09 1004.77 1004.45 1004.25
1016.49 1016.45 1016.37 1016.37 1016.37 1016.29 1016.41 1016.41 1016.45 1016.41 1016.45 1016.41 1016.33 1016.13 1015.93 1015.73 1015.65 1015.65 1015.65 1015.37 1015.17 1015.17 1015.13 1014.97 1014.93 1014.77 1014.41 1014.21 1013.97 1013.65 1013.33 1013.01 1012.69 1012.45 1012.17 1011.69 1011.45 1010.97 1010.61 1010.29 1009.85 1009.53 1009.29 1008.81 1008.37 1008.17 1008.01 1007.81 1007.93 1008.21 1008.29 1007.89 1007.05 1006.17 1005.65 1005.09 1004.89 1005.41 1005.93 1006.09 1006.17 1005.89 1005.49 1005.49 1005.41 1005.33 1005.33 1005.21 1005.29 1004.81 1004.65 1004.41 1004.01 1003.93
1016.65 1016.65 1016.61 1016.49 1016.49 1016.37 1016.33 1016.25 1016.29 1016.29 1016.37 1016.41 1016.29 1016.37 1016.13 1015.93 1015.93 1015.85 1015.73 1015.81 1015.61 1015.33 1015.21 1015.09 1014.93 1014.89 1014.69 1014.45 1014.49 1014.25 1013.93 1013.53 1013.21 1013.09 1012.89 1012.37 1012.21 1012.01 1011.57 1011.33 1010.77 1010.13 1009.53 1008.89 1008.25 1008.05 1008.05 1008.29 1008.65 1008.69 1008.97 1008.97 1008.73 1008.61 1008.49 1008.25 1007.21 1006.49 1006.09 1006.17 1006.49 1006.25 1006.01 1005.89 1005.65 1005.45 1005.33 1005.25 1005.05 1004.73 1004.37 1004.09 1003.97 1004.01
1016.69 1016.61 1016.69 1016.57 1016.57 1016.45 1016.41 1016.25 1016.17 1016.13 1016.13 1016.17 1016.17 1016.33 1016.21 1016.05 1015.97 1016.09 1016.13 1016.17 1015.81 1015.61 1015.25 1015.21 1015.13 1014.81 1014.49 1014.45 1014.49 1014.41 1014.17 1013.93 1013.77 1013.49 1013.25 1012.77 1012.45 1012.41 1012.25 1011.97 1011.21 1010.41 1009.85 1009.37 1008.81 1008.13 1008.05 1008.33 1008.73 1008.93 1008.93 1008.77 1008.73 1008.45 1008.05 1007.73 1007.33 1006.89 1006.49 1006.05 1006.17 1006.13 1006.05 1006.01 1006.17 1006.09 1006.05 1005.69 1005.53 1005.53 1005.33 1004.85 1004.61 1004.05
1016.73 1016.57 1016.57 1016.57 1016.49 1016.49 1016.45 1016.37 1016.29 1016.21 1016.17 1016.13 1016.09 1016.29 1016.13 1015.97 1015.85 1016.25 1016.33 1016.29 1015.85 1015.77 1015.61 1015.29 1015.09 1015.05 1014.93 1014.65 1014.53 1014.45 1014.13 1013.81 1013.65 1013.53 1013.25 1012.85 1012.65 1012.57 1012.65 1012.33 1011.45 1010.85 1010.37 1010.01 1009.41 1008.97 1008.93 1009.05 1009.33 1009.29 1008.97 1008.53 1008.29 1008.09 1008.01 1007.53 1006.89 1006.17 1005.97 1006.01 1006.29 1006.37 1006.49 1006.49 1006.25 1006.05 1005.77 1005.57 1005.49 1005.49 1005.45 1005.29 1004.85 1004.37
1016.93 1016.69 1016.65 1016.65 1016.69 1016.57 1016.49 1016.49 1016.45 1016.33 1016.21 1016.17 1016.05 1016.01 1015.93 1015.77 1015.65 1016.25 1015.81 1015.65 1015.57 1015.65 1015.37 1015.25 1015.01 1015.05 1014.93 1014.77 1014.61 1014.45 1014.21 1013.85 1013.65 1013.53 1013.29 1012.93 1012.69 1012.53 1012.25 1012.21 1012.09 1011.69 1011.33 1011.09 1010.65 1010.29 1009.93 1009.65 1009.33 1009.01 1008.65 1008.29 1007.85 1007.61 1007.33 1006.77 1006.53 1006.13 1006.13 1006.09 1006.01 1006.25 1006.41 1006.25 1006.25 1006.25 1006.05 1005.65 1005.37 1005.33 1005.09 1004.57 1004.33 1004.01
1016.97 1016.81 1016.77 1016.73 1016.77 1016.69 1016.65 1016.65 1016.53 1016.45 1016.29 1016.21 1016.09 1016.09 1015.93 1015.85 1015.57 1015.49 1015.33 1015.45 1015.61 1015.65 1015.53 1015.45 1015.29 1015.29 1015.13 1014.81 1014.49 1014.21 1013.73 1013.57 1013.61 1013.37 1013.05 1012.81 1012.61 1012.53 1012.37 1012.17 1012.01 1011.85 1011.61 1011.33 1010.97 1010.77 1010.45 1010.17 1009.77 1009.41 1009.21 1008.77 1008.33 1008.13 1007.53 1007.25 1007.33 1006.97 1006.41 1005.97 1005.85 1005.97 1006.05 1005.93 1006.01 1006.13 1006.13 1006.05 1006.01 1005.81 1005.45 1005.41 1005.21 1004.81
1016.97 1016.97 1016.77 1016.77 1016.73 1016.73 1016.69 1016.69 1016.69 1016.61 1016.49 1016.29 1016.21 1016.05 1015.97 1016.01 1015.93 1015.81 1015.61 1015.69 1015.89 1015.97 1015.85 1015.65 1015.49 1015.41 1015.21 1014.81 1014.53 1014.09 1013.89 1013.89 1013.69 1013.33 1012.97 1012.69 1012.41 1012.09 1011.97 1011.81 1011.69 1011.37 1011.01 1010.69 1010.37 1010.21 1010.01 1009.93 1009.77 1009.73 1009.61 1009.25 1009.13 1008.85 1008.57 1008.49 1007.89 1007.45 1007.25 1006.97 1006.73 1006.57 1006.41 1005.93 1005.81 1005.97 1005.85 1005.73 1005.81 1005.93 1006.01 1006.09 1006.01 1005.85
1016.97 1016.97 1016.93 1016.89 1016.85 1016.73 1016.73 1016.77 1016.73 1016.69 1016.57 1016.49 1016.29 1016.13 1016.13 1016.01 1016.09 1016.01 1015.85 1015.93 1016.09 1016.21 1016.09 1015.85 1015.65 1015.45 1015.33 1015.01 1014.65 1014.29 1014.25 1014.17 1013.77 1013.33 1013.09 1012.77 1012.41 1012.09 1011.89 1011.73 1011.61 1011.33 1010.97 1010.53 1010.37 1009.97 1009.73 1009.53 1009.13 1009.17 1009.25 1009.01 1008.97 1008.93 1008.77 1008.61 1008.33 1008.01 1007.69 1007.25 1006.97 1006.69 1006.45 1006.21 1006.25 1006.09 1005.73 1005.21 1005.45 1005.85 1005.89 1005.89 1005.81 1005.69
Thickness
5664 5663 5665 5668 5670 5672 5673 5673 5674 5673 5673 5674 5674 5674 5674 5671 5668 5669 5672 5675 5681 5688 5691 5689 5689 5692 5690 5686 5684 5683 5682 5681 5678 5675 5674 5675 5675 5674 5671 5669 5668 5667 5666 5664 5663 5662 5661 5660 5658 5656 5654 5652 5649 5647 5645 5644 5643 5643 5642 5641 5640 5639 5638 5636 5636 5635 5633 5632 5630 5629 5628 5625 5624 5622
5663 5660 5660 5664 5668 5670 5670 5671 5672 5672 5671 5672 5672 5673 5673 5673 5670 5668 5668 5672 5679 5685 5688 5689 5690 5692 5692 5689 5686 5684 5684 5682 5680 5677 5677 5676 5676 5675 5673 5671 5670 5668 5667 5665 5664 5663 5662 5661 5660 5658 5656 5654 5652 5649 5647 5645 5644 5643 5642 5641 5641 5640 5639 5638 5637 5636 5635 5633 5632 5631 5629 5628 5626 5624
5663 5661 5661 5664 5666 5667 5668 5668 5669 5670 5670 5670 5670 5671 5672 5672 5672 5671 5668 5668 5676 5682 5683 5687 5691 5691 5692 5692 5689 5686 5686 5684 5681 5680 5679 5678 5677 5675 5674 5672 5670 5669 5668 5667 5666 5665 5664 5663 5662 5661 5659 5657 5655 5653 5651 5648 5646 5644 5643 5642 5642 5641 5640 5640 5638 5637 5636 5635 5634 5632 5631 5630 5629 5627
5661 5661 5662 5663 5664 5665 5665 5666 5667 5668 5669 5669 5669 5670 5671 5671 5671 5672 5669 5667 5672 5680 5682 5683 5688 5691 5692 5692 5690 5687 5687 5685 5681 5681 5681 5680 5678 5676 5674 5673 5671 5670 5670 5668 5668 5666 5666 5665 5664 5663 5662 5661 5659 5657 5655 5653 5650 5648 5646 5645 5644 5643 5642 5640 5640 5639 5638 5638 5637 5636 5634 5633 5632 5630
5657 5659 5660 5661 5663 5663 5663 5664 5665 5667 5668 5668 5668 5669 5669 5670 5670 5670 5669 5667 5669 5676 5680 5682 5684 5688 5690 5689 5689 5688 5686 5685 5682 5681 5681 5680 5678 5676 5676 5675 5673 5671 5670 5669 5668 5668 5667 5667 5665 5665 5664 5663 5662 5661 5659 5657 5655 5653 5651 5650 5648 5646 5645 5643 5642 5641 5641 5640 5640 5640 5639 5637 5636 5634
5653 5654 5656 5658 5660 5661 5661 5662 5664 5665 5667 5667 5667 5668 5667 5668 5670 5670 5669 5668 5669 5671 5676 5679 5681 5684 5685 5685 5688 5688 5685 5685 5685 5683 5681 5681 5679 5678 5677 5678 5677 5675 5671 5669 5668 5668 5668 5668 5667 5666 5665 5664 5663 5663 5662 5660 5659 5657 5656 5655 5653 5651 5650 5648 5646 5645 5644 5643 5643 5642 5642 5641 5640 5639
5649 5650 5651 5653 5656 5658 5659 5659 5661 5663 5664 5666 5666 5666 5667 5667 5668 5670 5669 5668 5668 5669 5673 5676 5677 5680 5681 5683 5685 5687 5686 5686 5686 5684 5683 5683 5681 5680 5678 5678 5680 5679 5675 5671 5669 5668 5668 5668 5668 5667 5666 5665 5664 5663 5662 5661 5660 5660 5659 5657 5657 5655 5654 5652 5651 5649 5648 5647 5646 5645 5645 5644 5643 5642
5646 5647 5648 5649 5652 5655 5655 5655 5658 5660 5661 5663 5664 5665 5667 5667 5666 5668 5669 5668 5668 5667 5669 5673 5676 5678 5680 5681 5684 5687 5687 5686 5686 5685 5684 5684 5683 5682 5679 5678 5680 5680 5678 5675 5672 5669 5667 5666 5667 5666 5666 5666 5664 5663 5663 5662 5662 5661 5660 5659 5658 5657 5655 5654 5653 5652 5651 5651 5649 5649 5648 5647 5645 5644
5643 5644 5646 5647 5649 5650 5652 5653 5655 5658 5658 5659 5662 5663 5665 5667 5667 5667 5667 5668 5668 5666 5666 5670 5674 5677 5678 5678 5681 5684 5685 5685 5685 5685 5686 5686 5685 5683 5681 5678 5678 5678 5678 5676 5674 5671 5669 5666 5665 5664 5665 5665 5664 5664 5664 5663 5663 5662 5661 5661 5660 5659 5657 5656 5655 5655 5654 5653 5653 5651 5651 5649 5647 5646
5639 5642 5644 5646 5646 5647 5649 5649 5652 5655 5656 5657 5659 5661 5662 5665 5667 5666 5666 5666 5666 5665 5665 5667 5669 5671 5673 5674 5676 5680 5683 5682 5683 5683 5683 5685 5685 5683 5680 5677 5677 5677 5676 5676 5675 5673 5671 5668 5666 5665 5665 5665 5665 5665 5665 5665 5664 5663 5662 5661 5661 5660 5660 5659 5658 5657 5656 5655 5654 5653 5652 5651 5649 5648
5635 5639 5642 5643 5645 5647 5648 5648 5648 5651 5653 5655 5657 5659 5661 5663 5664 5664 5664 5665 5664 5664 5665 5667 5666 5668 5671 5671 5672 5676 5679 5680 5681 5682 5680 5680 5681 5681 5679 5677 5676 5677 5677 5677 5676 5674 5672 5669 5668 5667 5666 5667 5667 5667 5667 5667 5666 5665 5664 5663 5662 5661 5661 5661 5660 5660 5658 5657 5656 5654 5653 5651 5650 5649
5630 5633 5637 5640 5643 5645 5647 5647 5647 5649 5651 5653 5656 5657 5658 5660 5661 5661 5662 5663 5663 5663 5664 5666 5667 5667 5669 5670 5671 5672 5673 5673 5677 5681 5680 5677 5678 5680 5679 5679 5678 5678 5678 5678 5677 5675 5672 5670 5668 5667 5668 5669 5669 5669 5669 5669 5669 5668 5666 5665 5664 5663 5663 5664 5663 5662 5661 5659 5658 5656 5654 5653 5651 5650
5627 5630 5632 5636 5639 5641 5643 5643 5644 5645 5646 5648 5651 5653 5654 5656 5658 5659 5659 5659 5661 5661 5662 5664 5666 5666 5667 5669 5670 5670 5670 5671 5674 5678 5677 5676 5678 5680 5679 5679 5680 5678 5678 5678 5677 5676 5674 5671 5670 5670 5672 5673 5672 5671 5671 5672 5673 5671 5669 5668 5668 5667 5667 5667 5666 5664 5664 5662 5661 5659 5658 5656 5654 5652
5623 5626 5629 5632 5634 5635 5636 5637 5638 5639 5640 5642 5645 5647 5649 5651 5653 5654 5655 5656 5659 5660 5660 5661 5662 5662 5664 5667 5668 5667 5670 5672 5672 5672 5672 5672 5675 5676 5674 5676 5680 5680 5677 5675 5674 5676 5675 5673 5672 5673 5676 5677 5675 5674 5675 5676 5676 5674 5673 5673 5672 5671 5671 5670 5669 5668 5667 5667 5665 5664 5662 5660 5657 5655
5618 5621 5624 5627 5629 5630 5632 5633 5634 5635 5635 5637 5639 5641 5643 5644 5645 5647 5648 5652 5656 5657 5658 5659 5660 5660 5662 5665 5666 5664 5665 5668 5669 5668 5668 5668 5670 5670 5668 5669 5676 5679 5677 5672 5670 5673 5675 5674 5674 5677 5680 5681 5680 5680 5680 5680 5678 5677 5676 5677 5676 5675 5674 5673 5671 5670 5669 5668 5667 5666 5665 5663 5661 5659
5615 5617 5620 5622 5624 5627 5629 5630 5631 5632 5632 5634 5635 5636 5638 5639 5640 5642 5643 5646 5649 5653 5655 5656 5657 5659 5661 5663 5664 5662 5661 5664 5665 5664 5665 5666 5666 5667 5666 5666 5671 5677 5677 5672 5669 5671 5675 5677 5676 5677 5681 5683 5684 5685 5683 5681 5679 5679 5679 5679 5678 5677 5676 5675 5673 5671 5670 5669 5667 5666 5665 5664 5663 5661
5616 5616 5617 5619 5622 5623 5625 5626 5628 5629 5630 5630 5630 5630 5632 5634 5637 5638 5639 5641 5644 5646 5650 5652 5655 5660 5662 5661 5661 5662 5661 5660 5659 5660 5662 5664 5663 5663 5665 5667 5670 5674 5675 5672 5669 5670 5676 5680 5678 5677 5681 5682 5683 5685 5685 5683 5683 5682 5682 5681 5680 5679 5677 5675 5674 5673 5671 5669 5667 5666 5664 5663 5662 5661
5615 5616 5616 5617 5619 5620 5621 5623 5624 5625 5627 5627 5628 5628 5628 5631 5634 5635 5636 5638 5639 5641 5643 5646 5652 5658 5660 5660 5660 5662 5661 5657 5656 5657 5658 5660 5660 5661 5664 5668 5670 5671 5672 5672 5669 5668 5676 5681 5677 5679 5684 5682 5680 5683 5685 5686 5686 5685 5684 5682 5681 5680 5678 5676 5675 5673 5672 5670 5669 5667 5665 5663 5662 5661
5609 5612 5613 5614 5615 5618 5619 5620 5620 5621 5623 5625 5626 5627 5628 5631 5634 5636 5637 5638 5638 5640 5642 5645 5650 5654 5657 5658 5658 5659 5659 5656 5657 5658 5658 5659 5659 5660 5663 5666 5667 5668 5670 5671 5666 5666 5677 5680 5674 5677 5687 5684 5681 5683 5684 5685 5687 5685 5684 5683 5681 5680 5679 5678 5677 5675 5673 5672 5670 5669 5667 5665 5663 5662
5605 5608 5609 5611 5613 5614 5616 5617 5616 5615 5616 5618 5620 5623 5626 5630 5634 5637 5639 5640 5640 5641 5643 5646 5649 5652 5654 5655 5654 5656 5655 5653 5655 5655 5654 5654 5656 5656 5657 5659 5661 5665 5670 5671 5665 5664 5675 5680 5673 5675 5685 5685 5681 5683 5685 5686 5687 5685 5683 5683 5682 5681 5680 5679 5678 5676 5675 5673 5671 5670 5668 5665 5665 5663
5601 5604 5605 5608 5610 5612 5614 5613 5611 5608 5610 5611 5613 5617 5621 5625 5628 5633 5637 5639 5639 5640 5642 5643 5645 5648 5650 5649 5649 5650 5650 5649 5649 5645 5642 5645 5649 5650 5649 5652 5657 5664 5669 5670 5666 5662 5670 5679 5676 5673 5678 5681 5678 5680 5687 5690 5689 5686 5683 5681 5680 5680 5680 5679 5679 5676 5675 5673 5672 5670 5668 5667 5665 5659
5598 5601 5602 5603 5604 5607 5609 5607 5604 5602 5602 5605 5609 5613 5617 5620 5623 5627 5632 5635 5637 5638 5638 5639 5640 5642 5643 5644 5644 5645 5645 5644 5643 5640 5639 5644 5647 5646 5646 5650 5656 5661 5667 5669 5666 5661 5666 5675 5676 5671 5671 5675 5677 5680 5685 5689 5689 5686 5682 5679 5677 5677 5678 5677 5677 5675 5673 5672 5670 5668 5666 5665 5660 5651
5593 5596 5597 5598 5598 5599 5600 5599 5598 5598 5598 5600 5604 5607 5611 5614 5618 5623 5626 5628 5631 5633 5634 5635 5635 5636 5638 5640 5641 5643 5643 5641 5639 5639 5641 5644 5645 5645 5647 5651 5652 5655 5663 5669 5666 5660 5662 5669 5673 5671 5666 5665 5673 5680 5684 5686 5687 5685 5682 5678 5676 5674 5674 5673 5672 5671 5669 5668 5666 5664 5662 5658 5651 5644
5583 5587 5590 5592 5592 5591 5591 5590 5591 5591 5591 5594 5598 5601 5604 5608 5612 5615 5619 5622 5624 5626 5627 5629 5631 5633 5635 5638 5640 5641 5643 5642 5640 5640 5640 5643 5644 5645 5647 5650 5650 5652 5662 5670 5666 5661 5662 5665 5668 5671 5668 5664 5668 5676 5680 5684 5685 5683 5681 5681 5679 5676 5672 5668 5666 5667 5665 5664 5663 5661 5659 5655 5648 5643
5579 5581 5585 5588 5586 5583 5582 5582 5582 5583 5583 5583 5587 5592 5597 5599 5601 5603 5608 5612 5615 5617 5619 5622 5625 5629 5632 5634 5637 5639 5641 5643 5642 5642 5641 5642 5644 5645 5645 5647 5649 5653 5661 5667 5664 5661 5662 5662 5663 5666 5667 5665 5666 5669 5674 5679 5681 5681 5681 5682 5681 5678 5674 5669 5665 5664 5663 5662 5661 5659 5657 5654 5648 5643
5573 5575 5577 5580 5578 5575 5575 5575 5575 5577 5577 5577 5580 5583 5586 5588 5588 5590 5596 5601 5605 5608 5612 5615 5618 5622 5624 5627 5631 5635 5638 5640 5641 5642 5642 5643 5644 5646 5648 5647 5647 5649 5655 5660 5660 5659 5660 5661 5661 5659 5660 5662 5664 5665 5667 5671 5676 5679 5680 5679 5678 5677 5675 5671 5667 5665 5664 5663 5662 5661 5659 5655 5649 5646
5563 5565 5567 5568 5568 5568 5568 5570 5570 5571 5572 5573 5576 5577 5578 5578 5578 5580 5584 5590 5594 5597 5601 5605 5609 5614 5616 5618 5621 5626 5630 5633 5636 5637 5637 5638 5640 5642 5645 5647 5646 5646 5648 5650 5653 5653 5652 5655 5658 5656 5654 5656 5658 5660 5662 5664 5669 5672 5673 5674 5675 5674 5672 5670 5668 5666 5665 5663 5663 5661 5658 5653 5649 5646
5555 5556 5557 5558 5560 5561 5563 5564 5566 5567 5568 5570 5571 5572 5572 5573 5573 5574 5578 5582 5585 5588 5591 5595 5600 5604 5608 5610 5613 5618 5622 5625 5628 5631 5631 5632 5636 5638 5640 5643 5643 5642 5643 5644 5646 5645 5643 5646 5652 5652 5650 5651 5652 5655 5659 5660 5662 5665 5665 5666 5667 5667 5668 5667 5664 5663 5663 5662 5660 5659 5656 5653 5649 5643
5549 5550 5551 5552 5555 5557 5559 5561 5564 5565 5566 5567 5568 5568 5569 5569 5570 5572 5575 5577 5580 5583 5586 5590 5595 5598 5601 5604 5607 5611 5615 5617 5619 5622 5624 5627 5631 5631 5631 5632 5633 5636 5638 5639 5641 5641 5639 5640 5643 5644 5644 5644 5642 5644 5648 5652 5655 5658 5658 5658 5658 5661 5662 5661 5659 5658 5658 5657 5656 5656 5655 5655 5650 5642
5546 5546 5547 5549 5552 5554 5556 5557 5559 5560 5562 5563 5564 5566 5566 5567 5568 5570 5572 5574 5577 5579 5581 5584 5588 5591 5595 5598 5602 5604 5607 5610 5612 5614 5616 5620 5622 5620 5620 5622 5624 5630 5634 5635 5635 5636 5636 5637 5637 5635 5634 5633 5630 5630 5635 5638 5643 5649 5651 5650 5651 5653 5655 5656 5655 5654 5653 5651 5651 5651 5651 5650 5647 5642
5545 5545 5546 5547 5549 5550 5552 5553 5554 5555 5555 5556 5558 5559 5560 5561 5562 5562 5565 5568 5571 5573 5575 5577 5581 5585 5588 5592 5595 5597 5599 5603 5606 5606 5607 5611 5612 5612 5614 5618 5621 5626 5629 5630 5630 5630 5630 5631 5629 5626 5625 5625 5625 5627 5630 5629 5632 5640 5644 5645 5644 5645 5647 5649 5648 5648 5647 5646 5646 5647 5646 5644 5642 5639
5544 5546 5547 5547 5548 5548 5548 5549 5550 5552 5552 5551 5551 5551 5551 5552 5552 5553 5556 5558 5559 5561 5563 5567 5570 5575 5579 5582 5586 5590 5593 5596 5600 5600 5601 5604 5606 5606 5609 5614 5619 5622 5623 5622 5624 5625 5624 5623 5622 5620 5620 5619 5620 5623 5624 5623 5626 5631 5634 5635 5636 5636 5640 5641 5639 5641 5641 5638 5639 5642 5642 5639 5638 5637
5544 5547 5546 5546 5546 5547 5546 5544 5545 5545 5545 5546 5546 5545 5544 5544 5544 5544 5546 5546 5547 5548 5550 5553 5556 5559 5563 5567 5571 5576 5580 5585 5588 5590 5593 5597 5599 5599 5602 5608 5614 5616 5614 5612 5616 5619 5619 5620 5622 5621 5620 5619 5618 5618 5615 5615 5619 5623 5624 5624 5624 5627 5632 5633 5631 5633 5633 5630 5631 5635 5636 5636 5635 5633
5542 5545 5543 5542 5542 5542 5541 5539 5539 5537 5536 5537 5538 5538 5537 5536 5536 5535 5535 5535 5536 5538 5539 5542 5544 5546 5549 5552 5554 5558 5563 5567 5571 5574 5579 5584 5587 5588 5591 5597 5604 5607 5605 5605 5608 5612 5613 5615 5617 5616 5615 5615 5616 5617 5614 5611 5612 5615 5616 5615 5614 5618 5622 5625 5625 5626 5626 5624 5622 5623 5626 5629 5630 5629
5534 5536 5536 5535 5533 5532 5531 5529 5529 5530 5531 5529 5528 5529 5529 5528 5527 5527 5527 5526 5528 5529 5531 5532 5533 5535 5538 5540 5541 5544 5547 5551 5556 5561 5565 5569 5572 5574 5577 5583 5589 5594 5596 5596 5600 5603 5606 5609 5610 5608 5607 5606 5606 5608 5611 5610 5606 5605 5606 5606 5606 5608 5612 5614 5615 5616 5615 5613 5612 5612 5616 5622 5623 5622
5525 5525 5525 5525 5524 5523 5522 5520 5520 5521 5523 5522 5521 5521 5521 5519 5518 5518 5517 5517 5519 5520 5521 5524 5525 5526 5528 5530 5531 5534 5537 5539 5544 5548 5550 5552 5555 5559 5563 5566 5570 5575 5578 5581 5585 5587 5589 5594 5598 5599 5599 5597 5593 5593 5600 5604 5600 5597 5598 5598 5598 5601 5603 5605 5607 5607 5605 5605 5605 5605 5608 5614 5615 5614
5518 5518 5517 5516 5516 5515 5514 5513 5513 5513 5513 5513 5513 5513 5513 5512 5512 5511 5510 5511 5512 5511 5512 5514 5515 5517 5518 5519 5521 5524 5527 5530 5533 5535 5537 5540 5543 5546 5551 5554 5555 5558 5561 5565 5569 5571 5572 5575 5579 5582 5584 5585 5584 5585 5592 5596 5593 5589 5589 5588 5589 5592 5593 5594 5596 5597 5597 5598 5600 5600 5601 5605 5607 5607
5511 5511 5511 5510 5510 5509 5508 5508 5507 5507 5506 5506 5506 5506 5506 5506 5506 5505 5505 5506 5506 5505 5505 5506 5506 5507 5508 5510 5511 5513 5516 5519 5521 5522 5525 5528 5530 5533 5538 5541 5544 5547 5550 5554 5557 5560 5561 5561 5560 5560 5561 5563 5566 5569 5574 5578 5578 5579 5578 5577 5577 5579 5582 5583 5585 5587 5587 5588 5591 5593 5594 5597 5600 5600
5505 5505 5505 5504 5504 5504 5504 5504 5503 5502 5501 5501 5500 5500 5501 5501 5500 5500 5499 5498 5499 5500 5500 5500 5499 5500 5501 5501 5502 5503 5505 5508 5509 5510 5512 5515 5518 5520 5523 5526 5530 5534 5539 5544 5548 5551 5552 5550 5547 5546 5545 5546 5547 5549 5552 5555 5560 5565 5569 5569 5567 5568 5570 5572 5574 5576 5576 5577 5579 5582 5586 5589 5591 5592
5501 5501 5500 5500 5500 5499 5499 5499 5498 5498 5497 5496 5496 5495 5494 5495 5495 5493 5492 5491 5492 5493 5494 5494 5494 5495 5496 5496 5495 5496 5497 5499 5500 5501 5503 5506 5507 5508 5509 5513 5519 5525 5529 5533 5538 5541 5542 5540 5536 5535 5535 5537 5538 5540 5542 5545 5549 5554 5560 5562 5562 5561 5561 5561 5561 5561 5562 5564 5566 5568 5572 5575 5579 5582
5497 5497 5496 5495 5495 5495 5494 5494 5493 5493 5493 5492 5491 5490 5490 5491 5490 5487 5485 5486 5486 5487 5487 5488 5489 5489 5489 5490 5490 5489 5491 5493 5494 5494 5496 5499 5500 5501 5500 5502 5508 5513 5517 5520 5524 5527 5528 5527 5526 5525 5527 5530 5532 5532 5535 5540 5544 5549 5552 5553 5553 5552 5551 5549 5549 5550 5554 5557 5557 5558 5561 5563 5567 5572
5492 5492 5492 5491 5489 5489 5489 5488 5488 5488 5487 5487 5487 5486 5486 5487 5486 5484 5484 5484 5483 5482 5482 5483 5483 5482 5483 5483 5484 5484 5486 5488 5488 5489 5490 5492 5493 5494 5494 5495 5497 5500 5502 5505 5509 5512 5513 5514 5516 5518 5520 5523 5525 5527 5530 5534 5538 5541 5543 5544 5545 5544 5542 5542 5541 5541 5544 5547 5547 5550 5553 5556 5558 5563
5488 5487 5487 5486 5485 5485 5484 5483 5482 5482 5482 5481 5482 5481 5481 5481 5481 5481 5481 5481 5478 5476 5476 5476 5476 5476 5476 5477 5478 5480 5482 5482 5482 5484 5485 5487 5487 5488 5489 5489 5490 5492 5494 5496 5498 5500 5502 5504 5505 5507 5509 5511 5513 5516 5519 5522 5524 5527 5530 5533 5534 5534 5535 5536 5536 5535 5535 5536 5537 5539 5541 5542 5544 5548
5484 5483 5483 5482 5481 5480 5480 5478 5477 5477 5476 5477 5476 5476 5475 5475 5474 5475 5475 5473 5471 5470 5470 5470 5470 5469 5470 5471 5473 5474 5475 5475 5475 5477 5479 5481 5482 5483 5484 5484 5485 5486 5489 5491 5493 5495 5496 5497 5497 5497 5498 5499 5501 5502 5504 5506 5509 5512 5516 5519 5520 5521 5524 5526 5527 5527 5528 5529 5530 5529 5529 5529 5531 5533
5480 5478 5478 5477 5476 5476 5475 5474 5473 5472 5472 5471 5472 5471 5471 5469 5468 5468 5468 5466 5464 5462 5462 5463 5463 5463 5463 5464 5466 5467 5467 5467 5469 5471 5472 5473 5475 5477 5478 5478 5479 5480 5483 5486 5487 5488 5489 5492 5494 5494 5493 5494 5495 5495 5495 5497 5499 5501 5504 5508 5510 5512 5514 5516 5517 5518 5520 5523 5523 5521 5521 5522 5523 5524